This demonstration page uses our WeatherBlox Daily Observations layout. Learn more.

Left ArrowRight Arrow

41.86663, -103.66717

Hourly Observations for June 17, 2016

Temp ( °F °C ) Dew Point ( °F °C ) Humidity (%) Winds ( mph kmh ) Pressure ( in mb ) Visibility ( mi km ) Precip ( " mm )
12:53 am 00:53 Clear 68 20 47 8.3 47 47 NW 8 13 29.79 1009 10 16 0.00 0.00
1:53 am 01:53 Clear 64 17.8 50 10 60 60 WNW 9 15 29.80 1009 10 16 0.00 0.00
2:53 am 02:53 Clear 63 17.2 47 8.3 56 56 NW 8 13 29.81 1010 10 16 0.00 0.00
3:53 am 03:53 Clear 60 15.6 47 8.3 62 62 NW 9 15 29.84 1010 10 16 0.00 0.00
4:53 am 04:53 undefined 59 15 46 7.8 62 62 NW 10 17 29.87 1012 10 16 0.00 0.00
5:53 am 05:53 Sunny 60 15.6 44 6.7 56 56 WNW 12 19 29.92 1013 10 16 0.00 0.00
6:53 am 06:53 Sunny 63 17.2 46 7.8 54 54 WNW 9 15 29.95 1014 10 16 0.00 0.00
7:53 am 07:53 Sunny 69 20.6 51 10.6 53 53 NW 7 11 29.99 1016 10 16 0.00 0.00
8:53 am 08:53 Sunny 73 22.8 54 12.2 51 51 NNE 15 24 30.02 1017 10 16 0.00 0.00
9:53 am 09:53 Sunny 76 24.4 54 12.2 47 47 N 12 19 30.02 1017 10 16 0.00 0.00
10:53 am 10:53 Sunny 78 25.6 54 12.2 43 43 NNE 10 17 30.02 1017 10 16 0.00 0.00
11:53 am 11:53 Sunny 81 27.2 56 13.3 42 42 NE 9 15 30.01 1016 10 16 0.00 0.00
12:53 pm 12:53 Sunny 84 28.9 58 14.4 41 41 NNE 10 17 30.00 1016 10 16 0.00 0.00
1:53 pm 13:53 Sunny 87 30.6 59 15 39 39 NNE 10 17 29.98 1015 10 16 0.00 0.00
2:53 pm 14:53 Sunny 87 30.6 59 15 39 39 E 13 20 29.98 1015 10 16 0.00 0.00
3:53 pm 15:53 Sunny 88 31.1 60 15.6 39 39 E 16 26 29.97 1015 10 16 0.00 0.00
4:53 pm 16:53 Sunny 88 31.1 60 15.6 39 39 ENE 14 22 29.94 1014 10 16 0.00 0.00
5:53 pm 17:53 Sunny 87 30.6 60 15.6 40 40 E 12 19 29.92 1013 10 16 0.00 0.00
6:53 pm 18:53 Sunny 83 28.3 60 15.6 46 46 ENE 9 15 29.92 1013 10 16 0.00 0.00
7:53 pm 19:53 Sunny 81 27.2 62 16.7 53 53 NE 10 17 29.94 1014 10 16 0.00 0.00
8:53 pm 20:53 Clear 78 25.6 61 16.1 56 56 ENE 10 17 29.95 1014 10 16 0.00 0.00
9:53 pm 21:53 Mostly Cloudy 77 25 61 16.1 58 58 NE 14 22 29.99 1016 10 16 0.00 0.00
10:53 pm 22:53 Clear 75 23.9 62 16.7 64 64 E 15 24 30.00 1016 10 16 0.00 0.00
11:53 pm 23:53 Partly Cloudy 73 22.8 59 15 62 62 ESE 26 43 30.03 1017 10 16 0.00 0.00

Powered by AerisWeather